ERS-1

Last updated on Wed Sep 17 2025 00:02:15 GMT+0000 (Coordinated Universal Time)

1 21574U 91050A 25259.56212136 .00000262 00000+0 98925-4 0 9999 2 21574 98.7949 268.4086 0032088 0.9719 359.1525 14.39260069790688
UTC large
Height (km)
Speed (km/s)
/
Latitude / Longitude
Inclination (degrees)
Orbital Period (minutes)
Azimuth
Elevation
Range (km)
Doppler Factor

Next 0 passes for location: London (51.5072 / 0.1276)

Sorry there are no passes over London.